Time,TemperatureF,DewpointF,PressureIn,WindDirection,WindDirectionDegrees,WindSpeedMPH,WindSpeedGustMPH,Humidity,HourlyPrecipIn,Conditions,Clouds,dailyrainin,SolarRadiationWatts/m^2,SoftwareType,DateUTC
2013-05-14 00:01:00,53.4,37.2,29.99,SSE,156,1.0,1.0,54,0.00,,,0.00,0,Wunderground v.1.15,2013-05-14 05:01:00,
2013-05-14 00:11:00,53.5,37.7,29.99,South,183,0.0,4.0,55,0.00,,,0.00,0,Wunderground v.1.15,2013-05-14 05:11:00,
2013-05-14 00:21:00,53.7,37.9,29.98,South,171,1.0,1.0,55,0.00,,,0.00,0,Wunderground v.1.15,2013-05-14 05:21:00,
2013-05-14 00:26:00,53.7,37.9,29.98,South,179,1.0,1.0,55,0.00,,,0.00,0,Wunderground v.1.15,2013-05-14 05:26:00,
2013-05-14 00:31:00,53.6,37.8,29.98,SSE,158,1.0,1.0,55,0.00,,,0.00,0,Wunderground v.1.15,2013-05-14 05:31:00,
2013-05-14 00:41:00,53.5,38.2,29.97,SSE,166,0.0,0.0,56,0.00,,,0.00,0,Wunderground v.1.15,2013-05-14 05:41:00,
2013-05-14 00:46:00,53.4,38.1,29.97,South,179,0.0,0.0,56,0.00,,,0.00,0,Wunderground v.1.15,2013-05-14 05:46:00,
2013-05-14 00:51:00,53.4,37.6,29.97,South,172,0.0,0.0,55,0.00,,,0.00,0,Wunderground v.1.15,2013-05-14 05:51:00,
2013-05-14 01:01:00,53.5,36.8,29.96,South,176,1.0,1.0,53,0.00,,,0.00,0,Wunderground v.1.15,2013-05-14 06:01:00,
2013-05-14 01:06:00,53.8,36.1,29.96,South,186,1.0,3.0,51,0.00,,,0.00,0,Wunderground v.1.15,2013-05-14 06:06:00,
2013-05-14 01:16:00,54.4,35.6,29.95,South,187,1.0,1.0,49,0.00,,,0.00,0,Wunderground v.1.15,2013-05-14 06:16:00,
2013-05-14 01:26:00,54.6,35.3,29.94,South,181,1.0,3.0,48,0.00,,,0.00,0,Wunderground v.1.15,2013-05-14 06:26:00,
2013-05-14 01:31:00,54.9,35.0,29.94,North,359,2.0,2.0,47,0.00,,,0.00,0,Wunderground v.1.15,2013-05-14 06:31:00,
2013-05-14 01:41:00,55.3,34.9,29.93,South,188,3.0,3.0,46,0.00,,,0.00,0,Wunderground v.1.15,2013-05-14 06:41:00,
2013-05-14 01:51:00,55.6,34.6,29.92,SSW,204,4.0,4.0,45,0.00,,,0.00,0,Wunderground v.1.15,2013-05-14 06:51:00,
2013-05-14 01:56:00,55.7,34.7,29.92,South,185,5.0,5.0,45,0.00,,,0.00,0,Wunderground v.1.15,2013-05-14 06:56:00,
2013-05-14 02:06:00,55.7,35.2,29.92,North,359,4.0,4.0,46,0.00,,,0.00,0,Wunderground v.1.15,2013-05-14 07:06:00,
2013-05-14 02:16:00,55.7,35.2,29.91,SSW,197,6.0,7.0,46,0.00,,,0.00,0,Wunderground v.1.15,2013-05-14 07:16:00,
2013-05-14 02:26:00,55.8,35.3,29.91,SSW,211,7.0,9.0,46,0.00,,,0.00,0,Wunderground v.1.15,2013-05-14 07:26:00,
2013-05-14 02:36:00,55.8,35.9,29.91,SSW,201,6.0,8.0,47,0.00,,,0.00,0,Wunderground v.1.15,2013-05-14 07:36:00,
2013-05-14 02:41:00,55.9,35.9,29.91,SSW,200,6.0,9.0,47,0.00,,,0.00,0,Wunderground v.1.15,2013-05-14 07:41:00,
2013-05-14 02:46:00,56.1,36.1,29.91,SW,214,7.0,9.0,47,0.00,,,0.00,0,Wunderground v.1.15,2013-05-14 07:46:00,
2013-05-14 02:51:00,56.0,36.0,29.91,South,185,6.0,6.0,47,0.00,,,0.00,0,Wunderground v.1.15,2013-05-14 07:51:00,
2013-05-14 03:01:00,56.2,36.2,29.90,SW,220,8.0,8.0,47,0.00,,,0.00,0,Wunderground v.1.15,2013-05-14 08:01:00,
2013-05-14 03:06:00,56.3,36.3,29.90,SW,219,8.0,11.0,47,0.00,,,0.00,0,Wunderground v.1.15,2013-05-14 08:06:00,
2013-05-14 03:21:00,56.3,36.8,29.90,SSW,208,8.0,8.0,48,0.00,,,0.00,0,Wunderground v.1.15,2013-05-14 08:21:00,
2013-05-14 03:31:00,56.3,36.8,29.89,North,359,9.0,9.0,48,0.00,,,0.00,0,Wunderground v.1.15,2013-05-14 08:31:00,
2013-05-14 03:36:00,56.2,36.8,29.89,SSW,208,8.0,9.0,48,0.00,,,0.00,0,Wunderground v.1.15,2013-05-14 08:36:00,
2013-05-14 03:41:00,56.3,36.8,29.88,SW,218,8.0,8.0,48,0.00,,,0.00,0,Wunderground v.1.15,2013-05-14 08:41:00,
2013-05-14 03:51:00,56.2,36.8,29.88,SSW,198,7.0,7.0,48,0.00,,,0.00,0,Wunderground v.1.15,2013-05-14 08:51:00,
2013-05-14 03:56:00,56.1,36.7,29.87,North,359,7.0,7.0,48,0.00,,,0.00,0,Wunderground v.1.15,2013-05-14 08:56:00,
2013-05-14 04:06:00,56.2,36.2,29.87,North,359,7.0,10.0,47,0.00,,,0.00,0,Wunderground v.1.15,2013-05-14 09:06:00,
2013-05-14 04:16:00,56.4,36.4,29.86,North,359,9.0,14.0,47,0.00,,,0.00,0,Wunderground v.1.15,2013-05-14 09:16:00,
2013-05-14 04:21:00,56.5,36.0,29.86,North,359,10.0,10.0,46,0.00,,,0.00,0,Wunderground v.1.15,2013-05-14 09:21:00,
2013-05-14 04:26:00,56.6,35.5,29.86,North,359,11.0,11.0,45,0.00,,,0.00,0,Wunderground v.1.15,2013-05-14 09:26:00,
2013-05-14 04:36:00,56.4,35.9,29.85,WSW,237,8.0,10.0,46,0.00,,,0.00,0,Wunderground v.1.15,2013-05-14 09:36:00,
2013-05-14 04:41:00,56.4,35.9,29.85,SW,218,8.0,8.0,46,0.00,,,0.00,0,Wunderground v.1.15,2013-05-14 09:41:00,
2013-05-14 04:51:00,56.4,35.3,29.84,SSW,210,10.0,10.0,45,0.00,,,0.00,0,Wunderground v.1.15,2013-05-14 09:51:00,
2013-05-14 04:56:00,56.4,35.3,29.83,North,359,11.0,21.0,45,0.00,,,0.00,0,Wunderground v.1.15,2013-05-14 09:56:00,
2013-05-14 05:01:00,56.4,35.9,29.84,SSW,212,11.0,11.0,46,0.00,,,0.00,0,Wunderground v.1.15,2013-05-14 10:01:00,
2013-05-14 05:11:00,56.3,35.8,29.84,SW,229,10.0,10.0,46,0.00,,,0.00,0,Wunderground v.1.15,2013-05-14 10:11:00,
2013-05-14 05:21:00,56.3,36.3,29.83,SW,214,11.0,11.0,47,0.00,,,0.00,0,Wunderground v.1.15,2013-05-14 10:21:00,
2013-05-14 05:26:00,56.1,36.1,29.83,SW,217,9.0,11.0,47,0.00,,,0.00,0,Wunderground v.1.15,2013-05-14 10:26:00,
2013-05-14 05:31:00,56.1,36.7,29.83,North,359,9.0,11.0,48,0.00,,,0.00,0,Wunderground v.1.15,2013-05-14 10:31:00,
2013-05-14 05:41:00,56.0,37.1,29.82,SSW,206,10.0,10.0,49,0.00,,,0.00,7,Wunderground v.1.15,2013-05-14 10:41:00,
2013-05-14 05:46:00,55.9,37.0,29.82,SW,231,9.0,11.0,49,0.00,,,0.00,11,Wunderground v.1.15,2013-05-14 10:46:00,
2013-05-14 05:51:00,55.8,37.4,29.82,SSW,193,8.0,8.0,50,0.00,,,0.00,12,Wunderground v.1.15,2013-05-14 10:51:00,
2013-05-14 06:01:00,55.8,37.9,29.82,North,359,7.0,10.0,51,0.00,,,0.00,19,Wunderground v.1.15,2013-05-14 11:01:00,
2013-05-14 06:06:00,55.8,37.9,29.82,North,359,7.0,10.0,51,0.00,,,0.00,23,Wunderground v.1.15,2013-05-14 11:06:00,
2013-05-14 06:16:00,56.0,38.6,29.81,SSW,208,8.0,8.0,52,0.00,,,0.00,28,Wunderground v.1.15,2013-05-14 11:16:00,
2013-05-14 06:21:00,56.1,39.2,29.81,SSW,195,7.0,7.0,53,0.00,,,0.00,32,Wunderground v.1.15,2013-05-14 11:21:00,
2013-05-14 06:31:00,56.4,39.5,29.81,North,359,7.0,8.0,53,0.00,,,0.00,40,Wunderground v.1.15,2013-05-14 11:31:00,
2013-05-14 06:36:00,56.5,40.0,29.81,SW,216,8.0,8.0,54,0.00,,,0.00,44,Wunderground v.1.15,2013-05-14 11:36:00,
2013-05-14 06:41:00,56.8,40.3,29.81,SSW,213,8.0,11.0,54,0.00,,,0.00,70,Wunderground v.1.15,2013-05-14 11:41:00,
2013-05-14 06:51:00,57.4,40.9,29.80,South,189,8.0,10.0,54,0.00,,,0.00,153,Wunderground v.1.15,2013-05-14 11:51:00,
2013-05-14 06:56:00,57.6,41.1,29.80,SW,224,8.0,10.0,54,0.00,,,0.00,169,Wunderground v.1.15,2013-05-14 11:56:00,
2013-05-14 07:06:00,58.0,41.4,29.80,WSW,243,8.0,13.0,54,0.00,,,0.00,202,Wunderground v.1.15,2013-05-14 12:06:00,
2013-05-14 07:16:00,58.6,42.0,29.79,North,359,8.0,12.0,54,0.00,,,0.00,234,Wunderground v.1.15,2013-05-14 12:16:00,
2013-05-14 07:21:00,58.8,42.7,29.79,SSW,204,10.0,10.0,55,0.00,,,0.00,250,Wunderground v.1.15,2013-05-14 12:21:00,
2013-05-14 07:31:00,59.3,43.1,29.79,SSW,209,7.0,12.0,55,0.00,,,0.00,276,Wunderground v.1.15,2013-05-14 12:31:00,
2013-05-14 07:36:00,59.5,43.3,29.79,SW,220,9.0,15.0,55,0.00,,,0.00,297,Wunderground v.1.15,2013-05-14 12:36:00,
2013-05-14 07:41:00,59.7,43.5,29.78,SSW,209,11.0,17.0,55,0.00,,,0.00,315,Wunderground v.1.15,2013-05-14 12:41:00,
2013-05-14 07:51:00,60.5,44.2,29.78,SW,223,8.0,13.0,55,0.00,,,0.00,346,Wunderground v.1.15,2013-05-14 12:51:00,
2013-05-14 07:56:00,60.8,44.5,29.78,North,359,9.0,13.0,55,0.00,,,0.00,360,Wunderground v.1.15,2013-05-14 12:56:00,
2013-05-14 08:01:00,61.2,44.9,29.78,SSW,199,9.0,9.0,55,0.00,,,0.00,302,Wunderground v.1.15,2013-05-14 13:01:00,
2013-05-14 08:11:00,61.8,45.5,29.78,SSW,212,11.0,13.0,55,0.00,,,0.00,415,Wunderground v.1.15,2013-05-14 13:11:00,
2013-05-14 08:21:00,62.3,45.4,29.79,WSW,249,8.0,8.0,54,0.00,,,0.00,448,Wunderground v.1.15,2013-05-14 13:21:00,
2013-05-14 08:31:00,62.7,46.3,29.79,WSW,253,9.0,9.0,55,0.00,,,0.00,429,Wunderground v.1.15,2013-05-14 13:31:00,
2013-05-14 08:36:00,63.1,46.7,29.79,WSW,254,7.0,9.0,55,0.00,,,0.00,497,Wunderground v.1.15,2013-05-14 13:36:00,
2013-05-14 08:41:00,63.6,46.6,29.79,West,264,6.0,9.0,54,0.00,,,0.00,510,Wunderground v.1.15,2013-05-14 13:41:00,
2013-05-14 08:51:00,64.3,47.3,29.78,North,359,7.0,7.0,54,0.00,,,0.00,545,Wunderground v.1.15,2013-05-14 13:51:00,
2013-05-14 08:56:00,64.4,46.9,29.78,SW,214,8.0,15.0,53,0.00,,,0.00,564,Wunderground v.1.15,2013-05-14 13:56:00,
2013-05-14 09:06:00,64.7,47.2,29.77,WSW,247,10.0,13.0,53,0.00,,,0.00,592,Wunderground v.1.15,2013-05-14 14:06:00,
2013-05-14 09:11:00,64.7,47.7,29.77,SW,230,10.0,15.0,54,0.00,,,0.00,610,Wunderground v.1.15,2013-05-14 14:11:00,
2013-05-14 09:21:00,65.6,48.0,29.76,SSW,210,8.0,8.0,53,0.00,,,0.00,640,Wunderground v.1.15,2013-05-14 14:21:00,
2013-05-14 09:26:00,66.0,48.4,29.76,SW,233,6.0,16.0,53,0.00,,,0.00,652,Wunderground v.1.15,2013-05-14 14:26:00,
2013-05-14 09:31:00,66.3,48.7,29.76,West,278,7.0,15.0,53,0.00,,,0.00,666,Wunderground v.1.15,2013-05-14 14:31:00,
2013-05-14 09:41:00,66.8,48.6,29.76,North,359,8.0,8.0,52,0.00,,,0.00,693,Wunderground v.1.15,2013-05-14 14:41:00,
2013-05-14 09:46:00,66.9,49.2,29.75,North,359,8.0,8.0,53,0.00,,,0.00,705,Wunderground v.1.15,2013-05-14 14:46:00,
2013-05-14 09:51:00,67.3,49.1,29.75,SW,216,8.0,14.0,52,0.00,,,0.00,719,Wunderground v.1.15,2013-05-14 14:51:00,
2013-05-14 09:56:00,67.4,49.2,29.75,SSW,209,9.0,14.0,52,0.00,,,0.00,733,Wunderground v.1.15,2013-05-14 14:56:00,
2013-05-14 10:06:00,68.0,50.2,29.75,SW,232,10.0,17.0,53,0.00,,,0.00,758,Wunderground v.1.15,2013-05-14 15:06:00,
2013-05-14 10:16:00,69.1,50.2,29.75,North,359,8.0,16.0,51,0.00,,,0.00,779,Wunderground v.1.15,2013-05-14 15:16:00,
2013-05-14 10:21:00,69.9,50.9,29.74,WSW,245,7.0,11.0,51,0.00,,,0.00,793,Wunderground v.1.15,2013-05-14 15:21:00,
2013-05-14 10:31:00,70.6,51.1,29.74,WSW,241,9.0,9.0,50,0.00,,,0.00,814,Wunderground v.1.15,2013-05-14 15:31:00,
2013-05-14 10:36:00,71.1,51.5,29.74,WSW,237,7.0,9.0,50,0.00,,,0.00,826,Wunderground v.1.15,2013-05-14 15:36:00,
2013-05-14 10:41:00,71.4,51.2,29.74,North,359,7.0,7.0,49,0.00,,,0.00,835,Wunderground v.1.15,2013-05-14 15:41:00,
2013-05-14 10:51:00,71.9,51.1,29.74,West,270,8.0,9.0,48,0.00,,,0.00,856,Wunderground v.1.15,2013-05-14 15:51:00,
2013-05-14 10:56:00,71.9,51.7,29.74,SW,235,9.0,9.0,49,0.00,,,0.00,865,Wunderground v.1.15,2013-05-14 15:56:00,
2013-05-14 11:01:00,72.2,52.0,29.74,North,359,8.0,8.0,49,0.00,,,0.00,875,Wunderground v.1.15,2013-05-14 16:01:00,
2013-05-14 11:11:00,72.6,51.8,29.75,SW,233,6.0,6.0,48,0.00,,,0.00,889,Wunderground v.1.15,2013-05-14 16:11:00,
2013-05-14 11:21:00,73.1,51.7,29.74,WSW,239,7.0,10.0,47,0.00,,,0.00,902,Wunderground v.1.15,2013-05-14 16:21:00,
2013-05-14 11:26:00,72.8,52.0,29.74,North,359,9.0,10.0,48,0.00,,,0.00,909,Wunderground v.1.15,2013-05-14 16:26:00,
2013-05-14 11:31:00,73.3,52.4,29.74,SW,219,9.0,9.0,48,0.00,,,0.00,916,Wunderground v.1.15,2013-05-14 16:31:00,
2013-05-14 11:36:00,73.8,52.3,29.74,North,359,6.0,9.0,47,0.00,,,0.00,926,Wunderground v.1.15,2013-05-14 16:36:00,
2013-05-14 11:46:00,74.4,52.3,29.75,North,359,6.0,7.0,46,0.00,,,0.00,933,Wunderground v.1.15,2013-05-14 16:46:00,
2013-05-14 11:51:00,74.9,52.7,29.75,North,359,5.0,5.0,46,0.00,,,0.00,940,Wunderground v.1.15,2013-05-14 16:51:00,
2013-05-14 12:01:00,75.3,53.1,29.75,North,359,5.0,8.0,46,0.00,,,0.00,944,Wunderground v.1.15,2013-05-14 17:01:00,
2013-05-14 12:06:00,75.8,52.9,29.75,West,266,3.0,8.0,45,0.00,,,0.00,953,Wunderground v.1.15,2013-05-14 17:06:00,
2013-05-14 12:16:00,76.2,53.3,29.75,North,359,6.0,11.0,45,0.00,,,0.00,956,Wunderground v.1.15,2013-05-14 17:16:00,
2013-05-14 12:21:00,76.5,53.6,29.75,North,359,6.0,6.0,45,0.00,,,0.00,963,Wunderground v.1.15,2013-05-14 17:21:00,
2013-05-14 12:31:00,76.8,53.8,29.75,SW,220,5.0,5.0,45,0.00,,,0.00,965,Wunderground v.1.15,2013-05-14 17:31:00,
2013-05-14 12:36:00,77.1,53.5,29.75,North,359,5.0,5.0,44,0.00,,,0.00,967,Wunderground v.1.15,2013-05-14 17:36:00,
2013-05-14 12:46:00,78.4,54.0,29.75,North,359,2.0,5.0,43,0.00,,,0.00,967,Wunderground v.1.15,2013-05-14 17:46:00,
2013-05-14 12:51:00,78.7,53.7,29.75,WSW,255,4.0,9.0,42,0.00,,,0.00,969,Wunderground v.1.15,2013-05-14 17:51:00,
2013-05-14 13:01:00,79.8,54.0,29.75,North,359,4.0,4.0,41,0.00,,,0.00,963,Wunderground v.1.15,2013-05-14 18:01:00,
2013-05-14 13:11:00,80.7,54.1,29.74,West,265,4.0,4.0,40,0.00,,,0.00,963,Wunderground v.1.15,2013-05-14 18:11:00,
2013-05-14 13:16:00,80.6,54.0,29.74,WSW,251,5.0,5.0,40,0.00,,,0.00,958,Wunderground v.1.15,2013-05-14 18:16:00,
2013-05-14 13:21:00,80.7,54.1,29.74,North,359,5.0,6.0,40,0.00,,,0.00,958,Wunderground v.1.15,2013-05-14 18:21:00,
2013-05-14 13:31:00,81.9,53.8,29.74,WSW,258,6.0,6.0,38,0.00,,,0.00,956,Wunderground v.1.15,2013-05-14 18:31:00,
2013-05-14 13:36:00,81.9,53.8,29.74,WSW,247,7.0,7.0,38,0.00,,,0.00,949,Wunderground v.1.15,2013-05-14 18:36:00,
2013-05-14 13:41:00,82.1,53.2,29.74,WNW,290,7.0,14.0,37,0.00,,,0.00,954,Wunderground v.1.15,2013-05-14 18:41:00,
2013-05-14 13:51:00,82.9,54.0,29.73,West,263,5.0,10.0,37,0.00,,,0.00,942,Wunderground v.1.15,2013-05-14 18:51:00,
2013-05-14 13:56:00,83.2,53.5,29.73,North,359,4.0,10.0,36,0.00,,,0.00,933,Wunderground v.1.15,2013-05-14 18:56:00,
2013-05-14 14:06:00,84.3,53.7,29.73,North,359,4.0,5.0,35,0.00,,,0.00,928,Wunderground v.1.15,2013-05-14 19:06:00,
2013-05-14 14:16:00,84.3,54.4,29.72,SW,236,5.0,5.0,36,0.00,,,0.00,905,Wunderground v.1.15,2013-05-14 19:16:00,
2013-05-14 14:21:00,85.1,53.6,29.72,North,359,3.0,7.0,34,0.00,,,0.00,902,Wunderground v.1.15,2013-05-14 19:21:00,
2013-05-14 14:31:00,85.6,53.2,29.72,WNW,283,6.0,6.0,33,0.00,,,0.00,881,Wunderground v.1.15,2013-05-14 19:31:00,
2013-05-14 14:36:00,86.5,54.0,29.72,WSW,255,4.0,6.0,33,0.00,,,0.00,886,Wunderground v.1.15,2013-05-14 19:36:00,
2013-05-14 14:41:00,86.7,53.3,29.72,SW,227,2.0,3.0,32,0.00,,,0.00,877,Wunderground v.1.15,2013-05-14 19:41:00,
2013-05-14 14:51:00,86.8,52.5,29.72,WNW,294,3.0,12.0,31,0.00,,,0.00,856,Wunderground v.1.15,2013-05-14 19:51:00,
2013-05-14 14:56:00,87.8,51.6,29.72,North,359,4.0,12.0,29,0.00,,,0.00,844,Wunderground v.1.15,2013-05-14 19:56:00,
2013-05-14 15:06:00,88.0,51.8,29.72,North,359,5.0,13.0,29,0.00,,,0.00,814,Wunderground v.1.15,2013-05-14 20:06:00,
2013-05-14 15:11:00,88.0,50.8,29.72,WSW,246,3.0,9.0,28,0.00,,,0.00,812,Wunderground v.1.15,2013-05-14 20:11:00,
2013-05-14 15:21:00,88.2,46.8,29.71,WSW,242,4.0,4.0,24,0.00,,,0.00,798,Wunderground v.1.15,2013-05-14 20:21:00,
2013-05-14 15:26:00,88.2,47.9,29.71,NW,305,6.0,6.0,25,0.00,,,0.00,772,Wunderground v.1.15,2013-05-14 20:26:00,
2013-05-14 15:36:00,89.0,47.5,29.72,North,359,5.0,9.0,24,0.00,,,0.00,754,Wunderground v.1.15,2013-05-14 20:36:00,
2013-05-14 15:41:00,89.1,47.6,29.72,NW,311,5.0,5.0,24,0.00,,,0.00,735,Wunderground v.1.15,2013-05-14 20:41:00,
2013-05-14 15:46:00,89.2,45.4,29.72,WNW,287,5.0,13.0,22,0.00,,,0.00,729,Wunderground v.1.15,2013-05-14 20:46:00,
2013-05-14 15:56:00,89.5,45.6,29.71,NW,310,4.0,10.0,22,0.00,,,0.00,700,Wunderground v.1.15,2013-05-14 20:56:00,
2013-05-14 16:01:00,89.6,45.7,29.71,WNW,284,3.0,7.0,22,0.00,,,0.00,696,Wunderground v.1.15,2013-05-14 21:01:00,
2013-05-14 16:11:00,89.9,44.7,29.71,North,8,4.0,4.0,21,0.00,,,0.00,666,Wunderground v.1.15,2013-05-14 21:11:00,
2013-05-14 16:16:00,89.6,52.2,29.72,NE,48,4.0,8.0,28,0.00,,,0.00,642,Wunderground v.1.15,2013-05-14 21:16:00,
2013-05-14 16:21:00,87.4,53.1,29.72,ENE,66,5.0,5.0,31,0.00,,,0.00,624,Wunderground v.1.15,2013-05-14 21:21:00,
2013-05-14 16:31:00,83.8,52.4,29.72,ENE,73,6.0,7.0,34,0.00,,,0.00,589,Wunderground v.1.15,2013-05-14 21:31:00,
2013-05-14 16:36:00,82.1,53.2,29.72,East,82,8.0,8.0,37,0.00,,,0.00,575,Wunderground v.1.15,2013-05-14 21:36:00,
2013-05-14 16:41:00,82.3,53.4,29.72,East,91,5.0,5.0,37,0.00,,,0.00,568,Wunderground v.1.15,2013-05-14 21:41:00,
2013-05-14 16:51:00,80.5,53.3,29.71,East,80,7.0,8.0,39,0.00,,,0.00,541,Wunderground v.1.15,2013-05-14 21:51:00,
2013-05-14 16:56:00,80.4,53.9,29.71,ENE,74,6.0,8.0,40,0.00,,,0.00,519,Wunderground v.1.15,2013-05-14 21:56:00,
2013-05-14 17:06:00,80.8,53.5,29.70,East,98,4.0,7.0,39,0.00,,,0.00,487,Wunderground v.1.15,2013-05-14 22:06:00,
2013-05-14 17:16:00,80.8,52.8,29.70,ESE,122,4.0,4.0,38,0.00,,,0.00,454,Wunderground v.1.15,2013-05-14 22:16:00,
2013-05-14 17:21:00,80.7,53.4,29.70,East,95,4.0,5.0,39,0.00,,,0.00,431,Wunderground v.1.15,2013-05-14 22:21:00,
2013-05-14 17:31:00,80.2,53.0,29.69,ESE,123,3.0,10.0,39,0.00,,,0.00,410,Wunderground v.1.15,2013-05-14 22:31:00,
2013-05-14 17:36:00,80.3,53.1,29.69,ESE,122,3.0,10.0,39,0.00,,,0.00,397,Wunderground v.1.15,2013-05-14 22:36:00,
2013-05-14 17:46:00,79.9,52.7,29.68,ESE,122,4.0,5.0,39,0.00,,,0.00,355,Wunderground v.1.15,2013-05-14 22:46:00,
2013-05-14 17:56:00,79.8,52.6,29.67,ESE,110,3.0,8.0,39,0.00,,,0.00,322,Wunderground v.1.15,2013-05-14 22:56:00,
2013-05-14 18:01:00,79.3,52.9,29.67,ESE,122,5.0,13.0,40,0.00,,,0.00,306,Wunderground v.1.15,2013-05-14 23:01:00,
2013-05-14 18:11:00,78.7,52.3,29.66,SSE,168,6.0,6.0,40,0.00,,,0.00,272,Wunderground v.1.15,2013-05-14 23:11:00,
2013-05-14 18:16:00,79.0,52.6,29.66,ESE,108,5.0,6.0,40,0.00,,,0.00,257,Wunderground v.1.15,2013-05-14 23:16:00,
2013-05-14 18:21:00,79.3,52.9,29.65,ESE,119,4.0,7.0,40,0.00,,,0.00,241,Wunderground v.1.15,2013-05-14 23:21:00,
2013-05-14 18:31:00,79.1,52.7,29.65,SSE,162,5.0,8.0,40,0.00,,,0.00,202,Wunderground v.1.15,2013-05-14 23:31:00,
2013-05-14 18:36:00,78.7,52.3,29.65,SSE,153,7.0,8.0,40,0.00,,,0.00,178,Wunderground v.1.15,2013-05-14 23:36:00,
2013-05-14 18:46:00,77.8,52.9,29.64,SSE,152,5.0,7.0,42,0.00,,,0.00,142,Wunderground v.1.15,2013-05-14 23:46:00,
2013-05-14 18:51:00,77.3,52.4,29.64,SSE,155,4.0,9.0,42,0.00,,,0.00,127,Wunderground v.1.15,2013-05-14 23:51:00,
2013-05-14 18:56:00,76.4,52.2,29.64,SSE,159,5.0,9.0,43,0.00,,,0.00,109,Wunderground v.1.15,2013-05-14 23:56:00,
2013-05-14 19:06:00,75.5,52.1,29.63,North,359,5.0,9.0,44,0.00,,,0.00,77,Wunderground v.1.15,2013-05-15 00:06:00,
2013-05-14 19:11:00,75.2,52.4,29.63,SE,142,4.0,4.0,45,0.00,,,0.00,65,Wunderground v.1.15,2013-05-15 00:11:00,
2013-05-14 19:21:00,74.7,52.5,29.63,SSE,160,2.0,2.0,46,0.00,,,0.00,44,Wunderground v.1.15,2013-05-15 00:21:00,
2013-05-14 19:26:00,74.6,52.4,29.63,South,169,1.0,2.0,46,0.00,,,0.00,35,Wunderground v.1.15,2013-05-15 00:26:00,
2013-05-14 19:31:00,74.4,52.3,29.63,South,172,1.0,5.0,46,0.00,,,0.00,26,Wunderground v.1.15,2013-05-15 00:31:00,
2013-05-14 19:41:00,74.1,52.6,29.63,SSE,153,0.0,0.0,47,0.00,,,0.00,12,Wunderground v.1.15,2013-05-15 00:41:00,
2013-05-14 19:46:00,74.0,53.1,29.63,SE,139,0.0,0.0,48,0.00,,,0.00,9,Wunderground v.1.15,2013-05-15 00:46:00,
2013-05-14 19:56:00,73.8,52.9,29.63,SSE,159,0.0,0.0,48,0.00,,,0.00,0,Wunderground v.1.15,2013-05-15 00:56:00,
2013-05-14 20:01:00,73.7,52.8,29.62,SSE,167,0.0,0.0,48,0.00,,,0.00,0,Wunderground v.1.15,2013-05-15 01:01:00,
2013-05-14 20:11:00,73.3,53.0,29.62,SSE,162,0.0,0.0,49,0.00,,,0.00,0,Wunderground v.1.15,2013-05-15 01:11:00,
2013-05-14 20:21:00,73.1,53.4,29.62,SSE,162,0.0,0.0,50,0.00,,,0.00,0,Wunderground v.1.15,2013-05-15 01:21:00,
2013-05-14 20:26:00,72.9,53.2,29.63,SSE,161,0.0,0.0,50,0.00,,,0.00,0,Wunderground v.1.15,2013-05-15 01:26:00,
2013-05-14 20:31:00,72.8,53.1,29.63,SSE,162,0.0,0.0,50,0.00,,,0.00,0,Wunderground v.1.15,2013-05-15 01:31:00,
2013-05-14 20:41:00,72.5,53.3,29.63,SSE,162,0.0,0.0,51,0.00,,,0.00,0,Wunderground v.1.15,2013-05-15 01:41:00,
2013-05-14 20:51:00,72.3,53.7,29.64,SSE,163,0.0,0.0,52,0.00,,,0.00,0,Wunderground v.1.15,2013-05-15 01:51:00,
2013-05-14 20:56:00,72.1,53.5,29.63,SSE,161,0.0,0.0,52,0.00,,,0.00,0,Wunderground v.1.15,2013-05-15 01:56:00,
2013-05-14 21:01:00,72.0,53.9,29.63,SSE,161,0.0,0.0,53,0.00,,,0.00,0,Wunderground v.1.15,2013-05-15 02:01:00,
2013-05-14 21:06:00,71.9,53.8,29.64,SSE,165,0.0,0.0,53,0.00,,,0.00,0,Wunderground v.1.15,2013-05-15 02:06:00,
2013-05-14 21:16:00,71.7,54.2,29.65,SSE,163,0.0,0.0,54,0.00,,,0.00,0,Wunderground v.1.15,2013-05-15 02:16:00,
2013-05-14 21:26:00,71.3,54.3,29.65,SSE,164,0.0,0.0,55,0.00,,,0.00,0,Wunderground v.1.15,2013-05-15 02:26:00,
2013-05-14 21:31:00,71.1,54.1,29.66,SSE,158,0.0,0.0,55,0.00,,,0.00,0,Wunderground v.1.15,2013-05-15 02:31:00,
2013-05-14 21:36:00,70.9,54.4,29.66,North,359,0.0,0.0,56,0.00,,,0.00,0,Wunderground v.1.15,2013-05-15 02:36:00,
2013-05-14 21:46:00,70.7,54.7,29.67,ENE,67,0.0,0.0,57,0.00,,,0.00,0,Wunderground v.1.15,2013-05-15 02:46:00,
2013-05-14 21:51:00,70.7,54.7,29.68,ENE,64,0.0,0.0,57,0.00,,,0.00,0,Wunderground v.1.15,2013-05-15 02:51:00,
2013-05-14 22:01:00,70.9,54.9,29.70,NNE,17,0.0,0.0,57,0.00,,,0.00,0,Wunderground v.1.15,2013-05-15 03:01:00,
2013-05-14 22:06:00,71.0,55.0,29.70,NNE,20,0.0,0.0,57,0.00,,,0.00,0,Wunderground v.1.15,2013-05-15 03:06:00,
2013-05-14 22:16:00,71.2,55.2,29.70,NNE,20,0.0,0.0,57,0.00,,,0.00,0,Wunderground v.1.15,2013-05-15 03:16:00,
2013-05-14 22:26:00,71.5,55.5,29.68,NNE,22,0.0,0.0,57,0.00,,,0.00,0,Wunderground v.1.15,2013-05-15 03:26:00,
2013-05-14 22:31:00,71.5,55.0,29.68,NNE,21,0.0,0.0,56,0.00,,,0.00,0,Wunderground v.1.15,2013-05-15 03:31:00,
2013-05-14 22:41:00,71.3,55.3,29.67,NNE,21,0.0,0.0,57,0.00,,,0.00,0,Wunderground v.1.15,2013-05-15 03:41:00,
2013-05-14 22:46:00,71.1,55.1,29.67,North,359,0.0,0.0,57,0.00,,,0.00,0,Wunderground v.1.15,2013-05-15 03:46:00,
2013-05-14 22:51:00,71.4,55.4,29.67,SW,233,0.0,0.0,57,0.00,,,0.00,0,Wunderground v.1.15,2013-05-15 03:51:00,
2013-05-14 23:01:00,71.9,55.3,29.66,SW,233,0.0,0.0,56,0.00,,,0.00,0,Wunderground v.1.15,2013-05-15 04:01:00,
2013-05-14 23:06:00,72.0,55.4,29.65,North,359,0.0,0.0,56,0.00,,,0.00,0,Wunderground v.1.15,2013-05-15 04:06:00,
2013-05-14 23:11:00,72.0,55.4,29.65,SSW,209,1.0,4.0,56,0.00,,,0.00,0,Wunderground v.1.15,2013-05-15 04:11:00,
2013-05-14 23:16:00,72.3,55.7,29.64,SSW,212,1.0,5.0,56,0.00,,,0.00,0,Wunderground v.1.15,2013-05-15 04:16:00,
2013-05-14 23:21:00,73.0,55.9,29.64,North,359,3.0,7.0,55,0.00,,,0.00,0,Wunderground v.1.15,2013-05-15 04:21:00,
2013-05-14 23:31:00,74.7,56.9,29.62,North,359,7.0,8.0,54,0.00,,,0.00,0,Wunderground v.1.15,2013-05-15 04:31:00,
2013-05-14 23:36:00,75.6,56.7,29.62,North,359,9.0,18.0,52,0.00,,,0.00,0,Wunderground v.1.15,2013-05-15 04:36:00,
2013-05-14 23:41:00,76.4,56.9,29.61,SSW,193,10.0,10.0,51,0.00,,,0.00,0,Wunderground v.1.15,2013-05-15 04:41:00,
2013-05-14 23:46:00,76.8,57.3,29.61,WSW,243,10.0,12.0,51,0.00,,,0.00,0,Wunderground v.1.15,2013-05-15 04:46:00,
2013-05-14 23:51:00,77.1,57.0,29.61,SW,219,10.0,10.0,50,0.00,,,0.00,0,Wunderground v.1.15,2013-05-15 04:51:00,